Moab, UT

5:58 AM MDT on July 23, 2017 (GMT -0600)
Canyonlands

Weather History for KCNY - September, 2013

Change the Weather History Date:

Thursday, September 12, 2013

  Actual Average Record
Temperature  
Mean Temperature 70 °F 69 °F  
Max Temperature 81 °F 84 °F 108 °F (1990)
Min Temperature 58 °F 53 °F 41 °F (1929)
Degree Days  
Heating Degree Days 0 1  
Month to date heating degree days 1 6  
Since 1 July heating degree days 1 7  
Cooling Degree Days 5 5  
Month to date cooling degree days 129 74  
Year to date cooling degree days 1596 1240  
Growing Degree Days 19 (Base 50)    
Moisture  
Dew Point 57 °F    
Average Humidity 71    
Maximum Humidity 100    
Minimum Humidity 42    
Precipitation  
Precipitation T in 0.03 in 1.57 in (2002)
Month to date precipitation 0.72 0.36  
Year to date precipitation 4.62 5.74  
Sea Level Pressure  
Sea Level Pressure 29.96 in    
Wind  
Wind Speed 6 mph (NNW)    
Max Wind Speed 32 mph    
Max Gust Speed 37 mph    
Visibility 10 miles    
Events Thunderstorm    
T = Trace of Precipitation, MM = Missing Value Source: NWS Daily Summary

Daily Weather History Graph

Daily Weather History Graph

Search for Another Location

Airport or City:

Trip Planner

Search our weather history database for the weather conditions in past years. The results will help you decide how hot, cold, wet, or windy it might be!

Date:

Astronomy

Sep. 12, 2013 Rise Set
Actual Time 6:58 AM MDT 7:31 PM MDT
Civil Twilight 6:31 AM MDT 7:58 PM MDT
Nautical Twilight 5:59 AM MDT 8:29 PM MDT
Astronomical Twilight 5:27 AM MDT 9:01 PM MDT
Moon 2:24 PM MDT (9/12) No Moon Set
Length of Visible Light 13h 26m
Length of Day
12h 33m
Waxing Crescent, 51% of the Moon is Illuminated
Sep 12
Waxing Crescent
Sep 19
Full
Sep 26
Last Quarter
Oct 4
New
Oct 11
First Quarter

Hourly Weather History & Observations

Time (MDT) Temp. Heat Index Dew Point Humidity Pressure Visibility Wind Dir Wind Speed Gust Speed Precip Events Conditions
12:53 AM 63.0 °F - 60.1 °F 90% 29.95 in 10.0 mi NW 6.9 mph - N/A   Mostly Cloudy
1:53 AM 63.0 °F - 60.1 °F 90% 29.94 in 10.0 mi Calm Calm - N/A   Scattered Clouds
2:53 AM 62.1 °F - 59.0 °F 90% 29.95 in 10.0 mi NNW 3.5 mph - N/A   Partly Cloudy
3:53 AM 60.1 °F - 59.0 °F 96% 29.95 in 10.0 mi WSW 4.6 mph - N/A   Clear
4:53 AM 61.0 °F - 59.0 °F 93% 29.96 in 10.0 mi NW 5.8 mph - N/A   Scattered Clouds
5:53 AM 59.0 °F - 57.9 °F 96% 29.96 in 10.0 mi Calm Calm - N/A   Clear
6:53 AM 57.9 °F - 57.0 °F 97% 29.98 in 10.0 mi Calm Calm - N/A   Clear
7:53 AM 61.0 °F - 59.0 °F 93% 30.00 in 10.0 mi Calm Calm - N/A   Clear
8:53 AM 64.0 °F - 60.1 °F 87% 30.00 in 10.0 mi SW 3.5 mph - N/A   Clear
9:53 AM 70.0 °F - 59.0 °F 68% 29.99 in 10.0 mi ESE 6.9 mph - N/A   Clear
10:53 AM 72.0 °F - 57.9 °F 61% 30.01 in 10.0 mi East 10.4 mph - N/A   Mostly Cloudy
11:53 AM 75.0 °F - 55.9 °F 51% 29.99 in 10.0 mi East 5.8 mph - N/A   Clear
12:53 PM 77.0 °F - 55.0 °F 47% 29.97 in 10.0 mi SE 3.5 mph - N/A   Clear
1:53 PM 81.0 °F 80.7 °F 55.0 °F 41% 29.93 in 10.0 mi East 6.9 mph - N/A   Clear
2:39 PM 78.8 °F - 53.6 °F 42% 30.05 in 10.0 mi ESE 10.4 mph - N/A Thunderstorm Thunderstorm
2:53 PM 78.1 °F - 55.0 °F 45% 29.90 in 10.0 mi NE 8.1 mph 16.1 mph N/A Thunderstorm Thunderstorm
3:17 PM 69.8 °F - 55.4 °F 60% 30.05 in 10.0 mi NNW 26.5 mph 31.1 mph 0.00 in Thunderstorm Thunderstorm
3:51 PM 71.6 °F - 57.2 °F 60% 30.03 in 10.0 mi NNW 10.4 mph - 0.00 in   Scattered Clouds
3:53 PM 73.0 °F - 59.0 °F 61% 29.90 in 10.0 mi NNW 9.2 mph - 0.00 in   Scattered Clouds
4:02 PM 75.2 °F - 60.8 °F 61% 30.02 in 10.0 mi NNW 9.2 mph - N/A Thunderstorm Partly Cloudy
4:53 PM 70.0 °F - 55.0 °F 59% 29.89 in 10.0 mi North 15.0 mph - N/A Thunderstorm Mostly Cloudy
5:01 PM 73.4 °F - 55.4 °F 53% 30.02 in 10.0 mi NNW 15.0 mph - N/A   Mostly Cloudy
5:53 PM 68.0 °F - 57.0 °F 68% 29.90 in 10.0 mi NW 11.5 mph - N/A   Clear
6:09 PM 69.8 °F - 55.4 °F 60% 30.01 in 10.0 mi NNW 9.2 mph - N/A Thunderstorm Clear
6:32 PM 71.6 °F - 53.6 °F 53% 30.01 in 10.0 mi NNW 10.4 mph - N/A   Clear
6:53 PM 71.1 °F - 55.0 °F 57% 29.87 in 10.0 mi West 9.2 mph - N/A   Partly Cloudy
7:53 PM 66.0 °F - 59.0 °F 78% 29.89 in 10.0 mi West 5.8 mph - N/A   Clear
8:53 PM 66.9 °F - 57.0 °F 70% 29.90 in 10.0 mi West 4.6 mph - N/A   Scattered Clouds
9:53 PM 66.0 °F - 55.9 °F 70% 29.89 in 10.0 mi Calm Calm - N/A   Clear
10:39 PM 66.2 °F - 57.2 °F 73% 30.02 in 10.0 mi Calm Calm - N/A Thunderstorm Overcast
10:53 PM 64.9 °F - 59.0 °F 81% 29.89 in 10.0 mi WSW 6.9 mph - N/A Thunderstorm Thunderstorm
11:53 PM 66.9 °F - 57.0 °F 70% 29.89 in 10.0 mi North 11.5 mph - 0.00 in Thunderstorm Overcast